Home > Weather > Midland > Past weeks

Flag for USA Past Weather in Midland, Texas, USA — Yesterday and Last 2 Weeks

Now
94 °F

Sunny.


Feels Like: 92 °F
Forecast: 76 / 96 °F
Wind: 15 mph from South

Location: Midland - Midland Airpark

Current Time: Jul 1, 2016 at 7:27:43 PM

Latest Report: Jul 1, 2016 at 6:55 PM


Visibility: 10 mi

Pressure: 29.99 "Hg (27.30 "Hg at 847m altitude)

Humidity: 26%

Dew Point: 54 °F

Location of MidlandLocation

Past Weather in Midland — Graph

°F

Midland Temperature Yesterday

Maximum temperature yesterday: 95 °F (at 5:35 PM)
Minimum temperature yesterday: 72 °F (at 6:55 AM)
Average temperature yesterday: 84 °F

High & Low Weather Summary for the Past Weeks

 TemperatureHumidityPressure
High102 °F (Jun 17, 5:35 PM)91% (Jun 27, 6:15 AM)30.29 "Hg (Jun 27, 6:15 AM)
Low67 °F (Jun 19, 9:55 AM)14% (Jun 17, 6:15 PM)29.91 "Hg (Jun 16, 6:15 PM)
Average83 °F50%30.10 "Hg
* Reported Jun 16 6:15 PM — Jul 1 6:15 PM, Midland, Weather by CustomWeather, © 2016

Note: Actual official high and low records may vary slightly from our data, if they occured in-between our weather recording intervals... More about our weather records

Advertising

Midland Weather History for the Previous 24 Hours

Scroll right to see more
 ConditionsComfort  
Time TempWeatherWind HumidityBarometerVisibility
6:15 PM
Fri, Jul 1
94 °FSunny.12 mph24%29.99 "Hg10 mi
5:55 PM95 °FSunny.16 mph23%29.99 "Hg10 mi
5:35 PM95 °FSunny.13 mph25%30.00 "Hg10 mi
5:15 PM96 °FScattered clouds.10 mph26%30.00 "Hg10 mi
4:55 PM95 °FScattered clouds.12 mph25%30.01 "Hg10 mi
4:35 PM94 °FScattered clouds.13 mph27%30.01 "Hg10 mi
4:15 PM96 °FScattered clouds.16 mph26%30.02 "Hg10 mi
3:55 PM96 °FSunny.12 mph24%30.03 "Hg10 mi
3:35 PM95 °FSunny.13 mph25%30.03 "Hg10 mi
3:15 PM95 °FSunny.16 mph26%30.04 "Hg10 mi
2:55 PM94 °FSunny.10 mph26%30.06 "Hg10 mi
2:35 PM94 °FScattered clouds.13 mph27%30.06 "Hg10 mi
2:15 PM95 °FScattered clouds.12 mph28%30.07 "Hg10 mi
1:35 PM93 °FSunny.12 mph32%30.09 "Hg10 mi
1:15 PM92 °FScattered clouds.13 mph34%30.09 "Hg10 mi
12:55 PM92 °FSunny.10 mph34%30.10 "Hg10 mi
12:35 PM91 °FScattered clouds.14 mph35%30.10 "Hg10 mi
12:15 PM89 °FScattered clouds.10 mph39%30.10 "Hg10 mi
11:55 AM89 °FScattered clouds.12 mph43%30.11 "Hg10 mi
11:35 AM88 °FSunny.13 mph45%30.10 "Hg10 mi
11:15 AM87 °FSunny.13 mph48%30.10 "Hg10 mi
10:55 AM86 °FSunny.13 mph50%30.10 "Hg10 mi
10:15 AM84 °FSunny.10 mph55%30.10 "Hg10 mi
9:55 AM83 °FSunny.12 mph57%30.10 "Hg10 mi
9:35 AM82 °FSunny.15 mph60%30.10 "Hg10 mi
9:15 AM81 °FSunny.13 mph62%30.10 "Hg10 mi
8:55 AM80 °FSunny.10 mph64%30.10 "Hg10 mi
8:35 AM78 °FSunny.13 mph66%30.10 "Hg10 mi
8:15 AM77 °FSunny.10 mph67%30.09 "Hg10 mi
7:55 AM76 °FSunny.9 mph69%30.09 "Hg10 mi
7:35 AM74 °FClear.6 mph69%30.09 "Hg10 mi
7:15 AM74 °FClear.6 mph68%30.09 "Hg10 mi
6:55 AM74 °FClear.5 mph67%30.09 "Hg10 mi
6:15 AM74 °FClear.5 mph64%30.07 "Hg10 mi
5:55 AM76 °FClear.6 mph61%30.07 "Hg10 mi
5:15 AM75 °FClear.10 mph61%30.07 "Hg10 mi
4:55 AM76 °FClear.8 mph61%30.06 "Hg10 mi
4:15 AM77 °FClear.7 mph56%30.06 "Hg10 mi
3:55 AM78 °FClear.8 mph53%30.06 "Hg10 mi
3:35 AM79 °FClear.10 mph52%30.05 "Hg10 mi
3:15 AM78 °FClear.7 mph54%30.05 "Hg10 mi
2:55 AM78 °FClear.6 mph54%30.05 "Hg10 mi
2:35 AM78 °FClear.5 mph54%30.06 "Hg10 mi
2:15 AM79 °FClear.5 mph53%30.06 "Hg10 mi
1:55 AM79 °FClear.7 mph51%30.07 "Hg10 mi
1:35 AM79 °FClear.7 mph51%30.07 "Hg10 mi
1:15 AM80 °FClear.8 mph49%30.07 "Hg10 mi
12:55 AM80 °FClear.8 mph47%30.07 "Hg10 mi
12:35 AM82 °FClear.7 mph45%30.07 "Hg10 mi
12:15 AM82 °FClear.6 mph42%30.07 "Hg10 mi
11:55 PM
Thu, Jun 30
83 °FClear.9 mph41%30.07 "Hg10 mi
11:35 PM84 °FClear.9 mph40%30.07 "Hg10 mi
11:15 PM84 °FClear.9 mph40%30.07 "Hg10 mi
10:55 PM84 °FClear.10 mph40%30.07 "Hg10 mi
10:35 PM85 °FPassing clouds.12 mph40%30.06 "Hg10 mi
10:15 PM85 °FPassing clouds.9 mph39%30.06 "Hg10 mi
9:55 PM86 °FSunny.9 mph37%30.05 "Hg10 mi
9:15 PM88 °FSunny.10 mph34%30.03 "Hg10 mi
8:55 PM88 °FSunny.10 mph33%30.03 "Hg10 mi
8:35 PM90 °FSunny.10 mph30%30.02 "Hg10 mi
8:15 PM90 °FSunny.13 mph30%30.01 "Hg10 mi
7:55 PM91 °FSunny.12 mph28%30.00 "Hg10 mi
7:35 PM92 °FSunny.10 mph27%29.99 "Hg10 mi
7:15 PM93 °FSunny.13 mph27%29.99 "Hg10 mi
Weather by CustomWeather, © 2016

See weather overviewHow to use our weather pages